Location: Diebersbach
(48.5163°N, 8.0558°E)
Time: 21:08:18
(UTC+00:00)

USA 229 - Pass Details

Date: 27 October 2021
Orbit: 946 x 1266 km, 63.4° (Epoch: 25 November)

Event Time Altitude Azimuth Distance (km) Brightness Sun altitude
Rises 18:52:07 0° 243° (WSW) 3,665 7.3 -26.3°
Reaches altitude 10° 18:54:43 10° 249° (WSW) 2,750 6.6 -26.7°
Maximum altitude 19:00:57 48° 324° (NW) 1,333 4.4 -27.7°
Enters shadow 19:05:03 23° 27° (NNE) 2,109 5.1 -28.4°
